Showing default

GHOST-3, 56958

Orbit data source: Space-Track

GHOST-3, 56958 is a payload satellite owned by Orbital Sidekick (US) in SSO that was launched on Mon, 12 Jun 2023 UTC via an FALCON 9 launch vehicle from the Air Force Western Test Range (AFWTR). Payload-class satellites include a variety of spacecraft equipped with specific instruments for various scientific and technological missions. These include communications satellites like Starlink; space stations such as the ISS; scientific satellites like the Hubble; Earth observation satellites from companies like Planet Labs, Umbra, and HawkEye 360; GPS; miniature CubeSats for education and research; and military/defense satellites.

Loading next visibility...
Identifier
56958, 2023-084AC
Orbit
SSO
Country
Flag of USUS
Related business
Manufacturer
Astro Digital
Mission
Operational Commercial Imaging
Bus & Motor
CORVUS-XL, Unknown motor
Mass
85 kg wet, 85 kg dry
Launch date (UTC)
2023-06-12 (3 years ago)
Launch vehicle
FALCON 9
Launch site
Air Force Western Test Range (AFWTR)
Object type
Payload
Rocket body
Debris
Shape & HBR
Box + 1 Dish, 1.0 m
Radar Cross Section
0.425 m², Medium (>0.1 m² and < 1m²)

Expand to show TLE details & history
Last TLE update: 12 hours ago

TLE from 12 hours ago
0 GHOST-3
1 56958U 23084AC  25351.87875753  .00015325  00000-0  37872-3 0  9992
2 56958  97.5971 127.0063 0006906 224.4273 135.6419 15.40557816140036
Epoch: 2025-12-17T21:05Z
TLE epoch observation values (Epoch: 2025-12-17T21:05:24.650Z)
Latitude
-0.00007°
Longitude
83.91131°
Altitude
450.946 km
Speed
7.64 km/s
True Right ascension
08h 28m 01s
True Declination
0° 00' 00"
Sunlit
Object was in full shadow at epoch
Visualization orbit readout
Latitude
Unknown
Longitude
Unknown
Altitude
Unknown
Speed
Unknown
Apparent Right ascension
Unknown
Apparent Declination
Unknown
Sunlit
N/A
Visualization observer readout
Local Sidereal Time
08:19:45
Azimuth
Unknown
Elevation
Unknown
Doppler factor
Unknown
Orbital elements
Apogee altitude
446.118 km
Perigee altitude
436.699 km
Semi-major axis
6,819.546 km
Eccentricity
0.00069
Inclination
97.5971°
RAAN
127.0063°
Arg. of periapsis
224.4273°
True anomaly
135.69719°
Mean anomaly
135.6419°
Eccentric anomaly
135.66955°
Mean motion
3.85398 °/min
Orbital period
93.41 mins
BSTAR
0.00037872
Loading maneuver chart data...
Computing Atmospheric mass density...
Loading historical data...
Loading historical data...
Loading historical data...
Loading historical data...
Loading historical data...
Loading historical data...
Loading historical data...

Documentation

Showing up to 5 results
|